User: anonymous   Login
Location: Pine Mountain Observatory
(43.7910°N, 120.9377°W)
Time: 00:51:02
(UTC-07:00)
Language:

Meteor 2-19 Rocket - Orbit

View from above orbital plane
View from above orbital plane
View from above satellite
View from above satellite

Ground track
Ground track

The orbit data is extracted from the following two-line orbital elements,

1 20671U 90057B   16209.78363102  .00000006  00000-0 -81133-5 0  9993
2 20671  82.5466 269.9701 0016032 144.3628 347.6902 13.84602230318173
Epoch (UTC): 27 July 2016 18:48:25
Eccentricity: 0.0016032
inclination: 82.5466°
perigee height: 936 km
apogee height: 959 km
right ascension of ascending node: 269.9701°
argument of perigee: 144.3628°
revolutions per day: 13.84602230
mean anomaly at epoch: 347.6902°
orbit number at epoch: 31817

The dashed part of the orbit path shows where the satellite is in the earth's shadow,  

DLR